THY77 LTFM-LTBS

Flight info

Callsign THY77
Flight time 0h 55m
Altitude 36000
Route RATVU1D/35L RATVU UT35 NUMTI DCT KULAR/N0447F350 UT44 ATSAL
Aircraft A321/M-SDE3FGHIRWY/LB1

Departure

Time 2026-04-25 19:10
Airport İstanbul Airport (LTFM)

Arrival

Time 2026-04-25 20:06
Airport Dalaman International Airport (LTBS)
Time Latitude Longitude Altitude Speed Heading
2026-04-25 18:22 41.26705 28.73457 334 ft 0 kts 91°
2026-04-25 18:55 41.26705 28.73456 334 ft 1 kts 91°
2026-04-25 18:55 41.26705 28.73423 329 ft 4 kts 84°
2026-04-25 18:55 41.26703 28.73392 330 ft 3 kts 87°
2026-04-25 18:56 41.26706 28.73360 331 ft 4 kts 126°
2026-04-25 18:56 41.26718 28.73345 331 ft 4 kts 154°
2026-04-25 18:56 41.26743 28.73334 330 ft 4 kts 175°
2026-04-25 18:56 41.26763 28.73333 331 ft 0 kts 179°
2026-04-25 19:01 41.26752 28.73334 331 ft 5 kts 179°
2026-04-25 19:01 41.26720 28.73313 334 ft 6 kts 248°
2026-04-25 19:01 41.26720 28.73250 334 ft 10 kts 270°
2026-04-25 19:02 41.26714 28.73032 334 ft 13 kts 253°
2026-04-25 19:02 41.26636 28.72996 330 ft 13 kts 179°
2026-04-25 19:02 41.26600 28.72966 331 ft 0 kts 246°
2026-04-25 19:07 41.26599 28.72961 332 ft 3 kts 250°
2026-04-25 19:07 41.26594 28.72874 334 ft 14 kts 269°
2026-04-25 19:08 41.26590 28.72570 334 ft 14 kts 269°
2026-04-25 19:08 41.26631 28.72516 333 ft 9 kts 356°
2026-04-25 19:09 41.26647 28.72516 334 ft 0 kts
2026-04-25 19:09 41.26743 28.72516 330 ft 47 kts 359°
2026-04-25 19:10 41.27325 28.72499 332 ft 118 kts 359°
2026-04-25 19:10 41.28347 28.72477 334 ft 173 kts 360°
2026-04-25 19:10 41.29589 28.72448 917 ft 175 kts 359°
2026-04-25 19:10 41.30811 28.72420 1658 ft 177 kts
2026-04-25 19:11 41.32089 28.72430 2029 ft 194 kts
2026-04-25 19:11 41.33515 28.72455 2257 ft 216 kts
2026-04-25 19:11 41.35103 28.72481 2457 ft 242 kts
2026-04-25 19:11 41.36841 28.72293 2899 ft 258 kts 340°
2026-04-25 19:12 41.38271 28.70921 3598 ft 263 kts 305°
2026-04-25 19:12 41.38897 28.68642 4355 ft 268 kts 276°
2026-04-25 19:12 41.38891 28.66149 5145 ft 271 kts 265°
2026-04-25 19:12 41.38675 28.63645 5936 ft 274 kts 263°
2026-04-25 19:13 41.38436 28.61120 6729 ft 275 kts 263°
2026-04-25 19:13 41.38053 28.58625 7477 ft 278 kts 246°
2026-04-25 19:13 41.36936 28.56539 8215 ft 280 kts 221°
2026-04-25 19:13 41.35232 28.55290 8956 ft 285 kts 195°
2026-04-25 19:14 41.33246 28.55121 9695 ft 289 kts 178°
2026-04-25 19:14 41.31913 28.55211 10160 ft 292 kts 179°
2026-04-25 19:14 41.29100 28.55298 10459 ft 320 kts 180°
2026-04-25 19:14 41.26816 28.55658 10680 ft 340 kts 168°
2026-04-25 19:15 41.24556 28.56715 11221 ft 349 kts 155°
2026-04-25 19:15 41.22496 28.58460 11856 ft 355 kts 141°
2026-04-25 19:15 41.20688 28.60713 12509 ft 358 kts 136°
2026-04-25 19:15 41.18894 28.63026 13181 ft 361 kts 136°
2026-04-25 19:16 41.17075 28.65355 13847 ft 365 kts 136°
2026-04-25 19:16 41.15237 28.67695 14431 ft 368 kts 136°
2026-04-25 19:16 41.13388 28.70066 15016 ft 372 kts 134°
2026-04-25 19:16 41.11785 28.72710 15577 ft 375 kts 123°
2026-04-25 19:17 41.10358 28.75630 16172 ft 379 kts 123°
2026-04-25 19:17 41.08922 28.78567 16761 ft 382 kts 123°
2026-04-25 19:17 41.07469 28.81536 17347 ft 385 kts 123°
2026-04-25 19:17 41.06001 28.84524 17920 ft 389 kts 123°
2026-04-25 19:18 41.04322 28.87342 18453 ft 393 kts 135°
2026-04-25 19:18 41.02178 28.89597 18940 ft 396 kts 149°
2026-04-25 19:18 40.99672 28.91123 19439 ft 399 kts 162°
2026-04-25 19:18 40.96945 28.91839 19940 ft 402 kts 176°
2026-04-25 19:19 40.94150 28.91716 20445 ft 404 kts 186°
2026-04-25 19:19 40.91380 28.91367 20954 ft 407 kts 186°
2026-04-25 19:19 40.88548 28.91017 21464 ft 410 kts 185°
2026-04-25 19:19 40.86629 28.90780 21801 ft 412 kts 185°
2026-04-25 19:20 40.82826 28.90305 22447 ft 416 kts 185°
2026-04-25 19:20 40.79938 28.89946 22924 ft 419 kts 185°
2026-04-25 19:20 40.77027 28.89585 23388 ft 421 kts 185°
2026-04-25 19:20 40.74100 28.89223 23803 ft 424 kts 185°
2026-04-25 19:21 40.71156 28.88862 24186 ft 426 kts 185°
2026-04-25 19:21 40.65217 28.88134 24936 ft 431 kts 185°
2026-04-25 19:21 40.62262 28.87769 25306 ft 433 kts 185°
2026-04-25 19:22 40.59253 28.87400 25703 ft 435 kts 185°
2026-04-25 19:22 40.56231 28.87030 26076 ft 437 kts 185°
2026-04-25 19:22 40.50139 28.86276 26797 ft 442 kts 185°
2026-04-25 19:23 40.47065 28.85894 27151 ft 445 kts 185°
2026-04-25 19:23 40.40879 28.85128 27871 ft 449 kts 185°
2026-04-25 19:23 40.37764 28.84743 28220 ft 451 kts 185°
2026-04-25 19:24 40.34675 28.84366 28557 ft 453 kts 185°
2026-04-25 19:24 40.31530 28.83988 28887 ft 455 kts 185°
2026-04-25 19:24 40.25194 28.83217 29530 ft 460 kts 185°
2026-04-25 19:25 40.18804 28.82427 30216 ft 463 kts 185°
2026-04-25 19:25 40.15590 28.82032 30485 ft 465 kts 185°
2026-04-25 19:25 40.12366 28.81636 30829 ft 465 kts 185°
2026-04-25 19:26 40.09193 28.81249 31228 ft 464 kts 185°
2026-04-25 19:26 40.05984 28.80859 31627 ft 463 kts 184°
2026-04-25 19:26 40.02784 28.80470 32033 ft 461 kts 185°
2026-04-25 19:26 39.99595 28.80084 32430 ft 460 kts 185°
2026-04-25 19:27 39.96416 28.79703 32818 ft 459 kts 184°
2026-04-25 19:27 39.94311 28.79451 33066 ft 458 kts 184°
2026-04-25 19:27 39.90066 28.78942 33569 ft 457 kts 185°
2026-04-25 19:27 39.86903 28.78558 33937 ft 456 kts 184°
2026-04-25 19:28 39.83741 28.78177 34259 ft 456 kts 184°
2026-04-25 19:28 39.80630 28.77804 34550 ft 455 kts 184°
2026-04-25 19:28 39.77476 28.77423 34833 ft 455 kts 185°
2026-04-25 19:28 39.74326 28.77041 35120 ft 455 kts 185°
2026-04-25 19:29 39.71179 28.76658 35402 ft 454 kts 185°
2026-04-25 19:29 39.68032 28.76277 35690 ft 454 kts 185°
2026-04-25 19:29 39.64887 28.75896 35980 ft 453 kts 185°
2026-04-25 19:29 39.61750 28.75519 36266 ft 453 kts 185°
2026-04-25 19:30 39.58616 28.75146 36534 ft 452 kts 185°
2026-04-25 19:30 39.55481 28.74774 36787 ft 452 kts 185°
2026-04-25 19:30 39.52390 28.74405 36987 ft 453 kts 185°
2026-04-25 19:30 39.49255 28.74029 37037 ft 452 kts 185°
2026-04-25 19:31 39.43004 28.73278 37039 ft 451 kts 185°
2026-04-25 19:31 39.36759 28.72534 37036 ft 451 kts 185°
2026-04-25 19:32 39.30514 28.71802 37038 ft 451 kts 185°
2026-04-25 19:32 39.25326 28.71189 37036 ft 450 kts 185°
2026-04-25 19:33 39.18081 28.70321 37033 ft 450 kts 185°
2026-04-25 19:33 39.11835 28.69574 37038 ft 451 kts 185°
2026-04-25 19:34 39.05621 28.68837 37050 ft 451 kts 185°
2026-04-25 19:34 38.99365 28.68096 37050 ft 452 kts 185°
2026-04-25 19:35 38.93103 28.67369 37057 ft 452 kts 185°
2026-04-25 19:35 38.86844 28.66643 37050 ft 451 kts 185°
2026-04-25 19:36 38.80595 28.65910 37049 ft 451 kts 185°
2026-04-25 19:36 38.74383 28.65168 37041 ft 451 kts 185°
2026-04-25 19:37 38.68125 28.64434 37043 ft 451 kts 185°
2026-04-25 19:37 38.61877 28.63709 37045 ft 451 kts 185°
2026-04-25 19:38 38.55622 28.63478 37047 ft 450 kts 176°
2026-04-25 19:38 38.49374 28.63997 37044 ft 450 kts 176°
2026-04-25 19:39 38.43167 28.64516 37047 ft 450 kts 176°
2026-04-25 19:39 38.36913 28.65035 37045 ft 450 kts 176°
2026-04-25 19:40 38.30665 28.65555 37045 ft 450 kts 176°
2026-04-25 19:40 38.24401 28.66072 36167 ft 455 kts 176°
2026-04-25 19:41 38.21243 28.66328 34956 ft 456 kts 175°
2026-04-25 19:41 38.18069 28.66586 33526 ft 457 kts 175°
2026-04-25 19:41 38.14918 28.66846 32219 ft 452 kts 175°
2026-04-25 19:41 38.12843 28.67017 31405 ft 448 kts 175°
2026-04-25 19:42 38.08726 28.67356 29924 ft 438 kts 174°
2026-04-25 19:42 38.05757 28.67601 28703 ft 430 kts 174°
2026-04-25 19:42 38.02776 28.67848 27962 ft 426 kts 175°
2026-04-25 19:42 37.99848 28.68086 27368 ft 417 kts 175°
2026-04-25 19:43 37.96999 28.68316 26922 ft 405 kts 175°
2026-04-25 19:43 37.94227 28.68540 26480 ft 394 kts 175°
2026-04-25 19:43 37.91525 28.68757 26044 ft 385 kts 175°
2026-04-25 19:43 37.88866 28.68970 25646 ft 382 kts 175°
2026-04-25 19:44 37.86217 28.69182 25250 ft 380 kts 176°
2026-04-25 19:44 37.83624 28.69392 24850 ft 377 kts 176°
2026-04-25 19:44 37.81013 28.69605 24451 ft 375 kts 176°
2026-04-25 19:44 37.78419 28.69819 24058 ft 372 kts 176°
2026-04-25 19:45 37.75843 28.70029 23647 ft 370 kts 176°
2026-04-25 19:45 37.73280 28.70236 23206 ft 368 kts 176°
2026-04-25 19:45 37.70742 28.70437 22791 ft 364 kts 176°
2026-04-25 19:45 37.68228 28.70623 22359 ft 360 kts 176°
2026-04-25 19:46 37.65739 28.70799 21938 ft 356 kts 176°
2026-04-25 19:46 37.63308 28.70967 21501 ft 353 kts 176°
2026-04-25 19:46 37.60866 28.71134 21072 ft 350 kts 176°
2026-04-25 19:46 37.58443 28.71303 20623 ft 347 kts 176°
2026-04-25 19:47 37.56038 28.71471 20192 ft 345 kts 176°
2026-04-25 19:47 37.53649 28.71638 19755 ft 343 kts 176°
2026-04-25 19:47 37.51273 28.71806 19312 ft 341 kts 175°
2026-04-25 19:47 37.48911 28.71964 18900 ft 339 kts 176°
2026-04-25 19:48 37.46546 28.72069 18558 ft 342 kts 177°
2026-04-25 19:48 37.44167 28.72137 18178 ft 341 kts 177°
2026-04-25 19:48 37.41810 28.72192 17790 ft 337 kts 177°
2026-04-25 19:48 37.39503 28.72247 17445 ft 335 kts 177°
2026-04-25 19:49 37.37179 28.72310 17082 ft 333 kts 177°
2026-04-25 19:49 37.36397 28.72333 16950 ft 333 kts 177°
2026-04-25 19:49 37.32569 28.72454 16370 ft 329 kts 176°
2026-04-25 19:49 37.30284 28.72532 16016 ft 328 kts 177°
2026-04-25 19:50 37.25755 28.72679 15318 ft 324 kts 177°
2026-04-25 19:50 37.23511 28.72754 14978 ft 322 kts 177°
2026-04-25 19:50 37.21279 28.72825 14623 ft 319 kts 177°
2026-04-25 19:51 37.19070 28.72895 14287 ft 317 kts 177°
2026-04-25 19:51 37.16904 28.72965 13951 ft 315 kts 177°
2026-04-25 19:51 37.14720 28.73033 13596 ft 313 kts 176°
2026-04-25 19:51 37.12544 28.73099 13250 ft 312 kts 177°
2026-04-25 19:52 37.10386 28.73165 12968 ft 306 kts 177°
2026-04-25 19:52 37.08296 28.73230 12833 ft 295 kts 176°
2026-04-25 19:52 37.06270 28.73288 12520 ft 289 kts 178°
2026-04-25 19:52 37.04274 28.73227 12255 ft 285 kts 180°
2026-04-25 19:53 37.02298 28.73086 11998 ft 284 kts 181°
2026-04-25 19:53 37.00334 28.72916 11794 ft 283 kts 182°
2026-04-25 19:53 36.98374 28.72743 11523 ft 282 kts 182°
2026-04-25 19:53 36.96450 28.72579 11217 ft 280 kts 181°
2026-04-25 19:54 36.94510 28.72422 10902 ft 279 kts 181°
2026-04-25 19:54 36.92577 28.72273 10608 ft 277 kts 181°
2026-04-25 19:54 36.90657 28.72129 10307 ft 276 kts 181°
2026-04-25 19:54 36.89395 28.71923 10102 ft 277 kts 190°
2026-04-25 19:55 36.86896 28.71142 9693 ft 276 kts 191°
2026-04-25 19:55 36.85034 28.70560 9376 ft 276 kts 191°
2026-04-25 19:55 36.83173 28.69982 9074 ft 275 kts 192°
2026-04-25 19:55 36.81341 28.69411 8779 ft 275 kts 191°
2026-04-25 19:56 36.79490 28.68833 8477 ft 274 kts 191°
2026-04-25 19:56 36.77645 28.68257 8185 ft 273 kts 191°
2026-04-25 19:56 36.75802 28.67683 7886 ft 273 kts 191°
2026-04-25 19:56 36.73957 28.67105 7587 ft 272 kts 191°
2026-04-25 19:57 36.72154 28.66540 7431 ft 262 kts 191°
2026-04-25 19:57 36.70419 28.65995 7319 ft 252 kts 191°
2026-04-25 19:57 36.68741 28.65469 7136 ft 245 kts 191°
2026-04-25 19:57 36.67107 28.64937 6993 ft 243 kts 191°
2026-04-25 19:58 36.65475 28.64389 6760 ft 243 kts 192°
2026-04-25 19:58 36.63870 28.63844 6509 ft 242 kts 192°
2026-04-25 19:58 36.62244 28.63289 6243 ft 242 kts 192°
2026-04-25 19:58 36.60616 28.62734 5973 ft 243 kts 192°
2026-04-25 19:59 36.58989 28.62181 5705 ft 242 kts 192°
2026-04-25 19:59 36.57364 28.61631 5413 ft 242 kts 192°
2026-04-25 19:59 36.55738 28.61138 5103 ft 239 kts 182°
2026-04-25 19:59 36.54154 28.61449 4818 ft 229 kts 150°
2026-04-25 20:00 36.52965 28.62698 4538 ft 224 kts 121°
2026-04-25 20:00 36.52716 28.63243 4453 ft 223 kts 111°
2026-04-25 20:00 36.51991 28.66326 3997 ft 224 kts 104°
2026-04-25 20:00 36.51579 28.68206 3757 ft 225 kts 105°
2026-04-25 20:01 36.51556 28.71957 3581 ft 227 kts 54°
2026-04-25 20:01 36.52804 28.73089 3421 ft 224 kts 18°
2026-04-25 20:01 36.54303 28.73517 3144 ft 219 kts 14°
2026-04-25 20:02 36.55769 28.73966 2858 ft 215 kts 15°
2026-04-25 20:02 36.57162 28.74430 2611 ft 198 kts 15°
2026-04-25 20:02 36.58435 28.74862 2350 ft 181 kts 16°
2026-04-25 20:02 36.59564 28.75247 2139 ft 161 kts 15°
2026-04-25 20:03 36.60613 28.75604 1916 ft 153 kts 15°
2026-04-25 20:03 36.61626 28.75951 1685 ft 149 kts 14°
2026-04-25 20:03 36.62626 28.76291 1506 ft 149 kts 14°
2026-04-25 20:03 36.63622 28.76626 1297 ft 148 kts 14°
2026-04-25 20:04 36.64611 28.76965 1130 ft 148 kts 14°
2026-04-25 20:04 36.65597 28.77302 956 ft 147 kts 14°
2026-04-25 20:04 36.66580 28.77634 782 ft 146 kts 14°
2026-04-25 20:04 36.67542 28.77961 578 ft 144 kts 15°
2026-04-25 20:05 36.68509 28.78284 384 ft 144 kts 15°
2026-04-25 20:05 36.69470 28.78616 179 ft 143 kts 16°
2026-04-25 20:05 36.70424 28.78946 16 ft 140 kts 16°
2026-04-25 20:05 36.71217 28.79216 13 ft 94 kts 15°
2026-04-25 20:06 36.71681 28.79372 12 ft 46 kts 15°
2026-04-25 20:06 36.71902 28.79432 12 ft 27 kts
2026-04-25 20:06 36.72049 28.79412 14 ft 17 kts 346°
2026-04-25 20:06 36.72136 28.79381 12 ft 4 kts 345°
2026-04-25 20:07 36.72157 28.79374 12 ft 1 kts 345°
2026-04-25 20:07 36.72158 28.79374 12 ft 1 kts 345°
2026-04-25 20:07 36.72162 28.79373 12 ft 1 kts 345°
2026-04-25 20:07 36.72206 28.79358 12 ft 14 kts 349°
2026-04-25 20:08 36.72283 28.79294 12 ft 15 kts 290°
2026-04-25 20:08 36.72308 28.79162 12 ft 16 kts 275°
2026-04-25 20:08 36.72323 28.79068 12 ft 0 kts 286°